Weather WX

World > North America > United States > Ohio

Proctor, Ohio Regional Weather

Lat: 41.16N, Lon: 81.23W
Wx Zone: OHZ022
Warning FLW WEATHER ALERT - FLASH FLOOD WATCH (More Info. Click Here) Warning
Feedback

Proctor, OH Regional Weather

Expires:201906160300;;137794
ASUS41 KCLE 160212
RWRCLE
OHIO REGIONAL WEATHER ROUNDUP
NATIONAL WEATHER SERVICE WILMINGTON, OH
1000 PM EDT SAT JUN 15 2019

NOTE: "FAIR" INDICATES FEW OR NO CLOUDS BELOW 12,000 FEET WITH NO
SIGNIFICANT WEATHER AND/OR OBSTRUCTIONS TO VISIBILITY.


OHZ009>014-019>023-028>033-038-089-160300-
   NORTHEAST OHIO
  
CITY           SKY/WX    TMP DP  RH WIND       PRES   REMARKS
CLE-HOPKINS    CLOUDY    66  64  93 S9        29.89S                  
CLE-LAKEFRONT  CLOUDY    68  62  81 S12       29.85F                  
CUY CO. ARPT   CLOUDY    66  63  88 S8        29.87S                  
LORAIN-ELYRIA  LGT RAIN  65  60  84 SW6       29.87F                  
ASHTABULA      CLOUDY    64  64 100 S6        29.89F                  
AKRON-CANTON   CLOUDY    67  62  84 S9        29.90S                  
WOOSTER        LGT RAIN  65  64  97 S8        29.89F                  
MANSFIELD      CLOUDY    66  65  96 S14       29.88S                  
YOUNGSTOWN     CLOUDY    64  61  90 S6        29.90S                  
$$
 

SKY/WX - Weather  TMP - Temperature  DP - Dew Point  RH - Relative Humidity
WIND - Wind Direction/Speed PRES - Barometric Pressure VSB - Visibility
WCI - Wind Chill Index E13G22 Wind - East Wind 13 mph/Gusts of 22 mph